Flag for Bosnia-Herzegovina Weather past 2 weeks in Sarajevo, Bosnia-Herzegovina

Now
45 °F

Scattered clouds.


Feels Like: 43 °F
Forecast: 34 / 47 °F
Wind: 3 mph from Northwest

Location: Sarajevo / Butmir

Current Time: Oct 24, 2014 at 12:38:29 PM

Latest Report: Oct 24, 2014 at 12:00 PM


Visibility: 4 mi

Pressure: 29.95 "Hg

Humidity: 81%

Dew point: 39 °F

Location of SarajevoLocation

Historic Weather in Sarajevo — Graph

°F

Sarajevo temperature yesterday

Maximum temperature yesterday: 39 °F (at 1:30 PM)
Minimum temperature yesterday: 32 °F (at 12:00 AM)
Average temperature yesterday: 37 °F

Past Weeks' High & Low Weather Summary

 TemperatureHumidityPressure
High77 °F (Oct 11, 3:30 PM)100% (Oct 9, 11:30 PM)30.42 "Hg (Oct 9, 11:30 PM)
Low32 °F (Oct 22, 2:30 PM)36% (Oct 9, 4:30 PM)29.59 "Hg (Oct 22, 8:00 AM)
Average56 °F83%30.05 "Hg
* Reported Oct 9 11:00 AM — Oct 24 11:30 AM, Sarajevo, Weather by CustomWeather, © 2014

Note: Actual official high and low records may vary slightly from our data, if they occured in-between our weather recording intervals... More about our weather records

Advertising

Sarajevo weather history for previous 24 hours

 ConditionsComfort  
Time TempWeatherWind HumidityBarometerVisibility
11:30 AM
Oct 24
43 °FFog.1 mph87%29.95 "Hg3 mi
11:00 AM43 °FFog.2 mph87%29.95 "Hg3 mi
10:30 AM43 °FFog.1 mph81%29.92 "Hg3 mi
10:00 AM41 °FFog.3 mph93%29.92 "Hg2 mi
9:30 AM41 °FFog.1 mph93%29.92 "Hg2 mi
9:00 AM39 °FFog.2 mph100%29.89 "Hg3 mi
8:30 AM39 °FPartly sunny.2 mph100%29.89 "Hg4 mi
8:00 AM39 °FPassing clouds.2 mph100%29.89 "Hg4 mi
7:30 AM39 °FPartly cloudy.2 mph93%29.86 "Hg4 mi
7:00 AM39 °FFog.2 mph93%29.86 "Hg3 mi
6:30 AM37 °FFog.2 mph100%29.83 "Hg2 mi
6:00 AM39 °FFog.3 mph93%29.83 "Hg2 mi
5:30 AM39 °FFog.No wind93%29.83 "Hg2 mi
5:00 AM39 °FFog.1 mph93%29.83 "Hg2 mi
4:00 AM37 °FFog.No wind100%29.83 "Hg2 mi
3:00 AM37 °FFog.No wind100%29.80 "Hg2 mi
2:00 AM37 °FFog.2 mph100%29.80 "Hg2 mi
1:00 AM37 °FFog.1 mph100%29.80 "Hg2 mi
12:00 AM37 °FLight rain. Fog.1 mph100%29.80 "Hg2 mi
11:00 PM
Oct 23
37 °FLight rain. Fog.1 mph100%29.80 "Hg2 mi
10:30 PM39 °FLight rain. Fog.1 mph93%29.80 "Hg2 mi
10:00 PM37 °FLight rain. Fog.1 mph100%29.80 "Hg2 mi
9:30 PM37 °FLight rain. Fog.2 mph100%29.80 "Hg2 mi
9:00 PM37 °FLight rain. Fog.2 mph100%29.77 "Hg2 mi
8:30 PM37 °FLight rain. Fog.No wind100%29.77 "Hg2 mi
8:00 PM37 °FLight rain. Fog.3 mph100%29.77 "Hg2 mi
7:00 PM39 °FLight rain. Fog.2 mph93%29.77 "Hg2 mi
6:30 PM39 °FRain. Fog.2 mph100%29.77 "Hg2 mi
6:00 PM39 °FLight rain. Fog.1 mph100%29.74 "Hg2 mi
5:30 PM39 °FFog.1 mph100%29.74 "Hg2 mi
5:00 PM39 °FFog.1 mph100%29.74 "Hg2 mi
4:30 PM39 °FDrizzle. Fog.1 mph100%29.74 "Hg2 mi
4:00 PM39 °FDrizzle. Fog.1 mph100%29.74 "Hg2 mi
3:30 PM39 °FDrizzle. Fog.2 mph93%29.74 "Hg2 mi
3:00 PM39 °FDrizzle. Fog.1 mph93%29.74 "Hg2 mi
2:30 PM39 °FDrizzle. Fog.1 mph100%29.74 "Hg2 mi
2:00 PM37 °FLight rain. Fog.1 mph100%29.74 "Hg2 mi
1:30 PM39 °FFog.No wind93%29.74 "Hg3 mi
1:00 PM37 °FFog.1 mph100%29.71 "Hg3 mi
12:30 PM37 °FBroken clouds.No wind100%29.74 "Hg4 mi
12:00 PM37 °FBroken clouds.No wind100%29.74 "Hg4 mi
Weather by CustomWeather, © 2014

See weather overviewHow to use our weather pages